User: anonymous   Login
Location: Unspecified
(0.0000°N, 0.0000°E)
Time: 20:08:50
(UTC+00:00)
Language:

Vela 6A - Orbit

View from above orbital plane
View from above orbital plane
View from above satellite
View from above satellite

Ground track
Ground track

The orbit data is extracted from the following two-line orbital elements,

1 04366U 70027A   16209.96168421  .00000742  00000-0  00000+0 0  9992
2 04366  47.0600 215.3578 6301759  75.4164   0.8121  0.21467145 29965
Epoch (UTC): 27 July 2016 23:04:49
Eccentricity: 0.6301759
inclination: 47.0600°
perigee height: 37194 km
apogee height: 185687 km
right ascension of ascending node: 215.3578°
argument of perigee: 75.4164°
revolutions per day: 0.21467145
mean anomaly at epoch: 0.8121°
orbit number at epoch: 2996

The dashed part of the orbit path shows where the satellite is in the earth's shadow,  

DLR